Regional Weather Roundup
Issued by NWS

Home | Current Version | Previous Version | Graphics & Text | Print | Product List | Glossary On
Versions: 1 2 3 4 5 6 7 8 9 10 11 12 13 14 15 16 17 18 19 20 21 22 23 24 25 26 27 28 29 30 31 32 33 34 35 36 37 38 39 40 41 42 43 44 45 46 47 48 49 50
000
ASUS43 KDTX 062310
RWRMI
MICHIGAN HOURLY REGIONAL WEATHER ROUNDUP
NATIONAL WEATHER SERVICE DETROIT/PONTIAC MI
700 PM EDT MON JUL 06 2015

NOTE: "FAIR" INDICATES FEW OR NO CLOUDS BELOW 12,000 FEET WITH NO
SIGNIFICANT WEATHER AND/OR OBSTRUCTION TO VISIBILITY.

MIZ047>049-052>055-059>063-066>070-074>076-081>083-070000-
SOUTHEAST LOWER MICHIGAN

CITY           SKY/WX    TMP DP  RH WIND       PRES   REMARKS
ADRIAN         SUNNY     82  64  54 SW7       29.96F
ALMA           PTSUNNY   82  65  56 S9        29.89F
ANN ARBOR      SUNNY     80  63  55 SW7       29.95F
BAD AXE        MOSUNNY   81  57  44 S9        29.93S
CARO           MOSUNNY   82  64  53 S7        29.91F
DETROIT CITY   MOSUNNY   81  62  52 S13       29.96S
DETROIT        PTSUNNY   82  64  54 SE9       29.96F
FLINT          MOSUNNY   84  63  49 S7        29.93F
GROSSE ILE     SUNNY     77  66  69 SE9       29.96S
HILLSDALE      MOSUNNY   81  65  56 S7        29.96F
HOWELL         MOSUNNY   80  62  54 S7        29.95S

CITY           SKY/WX    TMP DP  RH WIND       PRES   REMARKS
JACKSON        MOSUNNY   81  65  58 SW8       29.95F
LAMBERTVILLE   SUNNY     83  62  47 S3        29.96F
LANSING        MOSUNNY   82  66  58 SW15      29.93F HAZE
LAPEER         FAIR      82  56  40 SW7       29.94F
MASON          MOSUNNY   79  64  61 S6        29.94S
MONROE         SUNNY     80  66  63 SE6       29.95F
MT. CLEMENS    PTSUNNY   79  60  51 SE12      29.94S
PONTIAC        PTSUNNY   82  59  45 S8        29.94F
PORT HOPE        N/A     80  63  55 SE7       29.91S
PORT HURON     MOSUNNY   79  61  53 S8        29.95S
TRI CITIES     MOSUNNY   84  64  50 S14       29.89F
MIDLAND        FAIR      83  63  50 S8        29.88F
TROY           SUNNY     84  59  42 SW9       29.97S
SAGINAW HB     MOSUNNY   81  61  50 S9        29.90F
$$
MIZ043>046-050>051-056>058-064>065-071>073-077>080-070000-
SOUTHWEST LOWER MICHIGAN

CITY           SKY/WX    TMP DP  RH WIND       PRES   REMARKS
BATTLE CREEK   PTSUNNY   84  66  54 S13       29.93F
BENTON HARBOR  CLOUDY    83  69  62 S8        29.88F
BIG RAPIDS     PTSUNNY   81  62  53 S9G18     29.86F
COLDWATER      MOSUNNY   80  65  59 SW6       29.94F
FREMONT        FAIR      82  62  50 SW13G18   29.85F
HOLLAND        CLOUDY    83  67  58 S13       29.87F
GRAND RAPIDS   PTSUNNY   82  66  58 S12       29.88F
IONIA          FAIR      83  65  54 S12       29.89F
KALAMAZOO      PTSUNNY   82  66  58 S12       29.92F
LUDINGTON      CLOUDY    81  68  64 S15G24    29.82F
MARSHALL       MOSUNNY   82  67  59 S8        29.93F
MOUNT PLEASANT PTSUNNY   82  64  54 SE10      29.87F
MUSKEGON       CLOUDY    82  66  58 S15G23    29.85F
SOUTH HAVEN    CLOUDY    83  67  58 S9        29.88F
$$
MIZ016>042-070000-
NORTHERN LOWER MICHIGAN

CITY           SKY/WX    TMP DP  RH WIND       PRES   REMARKS
ALPENA         MOSUNNY   84  63  49 S15G23    29.85F
BEAVER ISLAND  CLOUDY    71  62  73 SW8       29.78F
BELLAIRE       MOSUNNY   82  61  47 S9        29.79F
CADILLAC       MOSUNNY   79  63  57 S10       29.85F
CHARLEVOIX     PTSUNNY   83  63  51 S13       29.80F
FRANKFORT      CLOUDY    82  63  51 S10G16    29.80S
GAYLORD        MOSUNNY   81  62  52 SW15      29.84F HAZE
GRAYLING       MOSUNNY   82  62  50 S12G17    29.86F
HARBOR SPRINGS PTSUNNY   82  64  55 S6        29.78F
HOUGHTON LAKE  MOSUNNY   80  63  55 S17       29.87F
MANISTEE       CLOUDY   N/A N/A N/A S8G18     29.82F
OSCODA         MOSUNNY   83  61  48 S14       29.87F
PELLSTON       PTSUNNY   82  64  54 S8        29.79F
ROGERS CITY    MOSUNNY   82  66  57 S8        29.83F
TRAVERSE CITY  PTSUNNY   83  64  52 S8        29.78F
$$
MIZ007>008-015-070000-
EASTERN UPPER MICHIGAN

CITY           SKY/WX    TMP DP  RH WIND       PRES   REMARKS
KINROSS        CLOUDY    79  64  61 SE9       29.80F
MACKINAC ISLAN PTSUNNY   74  63  68 E7        29.79F
NEWBERRY       LGT RAIN  67  65  95 S16       29.79F
S. S. MARIE    CLOUDY    77  64  64 SE7       29.79F
MUNISING         N/A     53  51  93 NW15G22   29.84R
$$
MIZ004>006-011>014-085-070000-
CENTRAL UPPER MICHIGAN

CITY           SKY/WX    TMP DP  RH WIND       PRES   REMARKS
MANISTIQUE     DRZL/FOG  61  59  96 S8        29.79F VSB 3/4
ESCANABA       CLOUDY    68  66  94 CALM      29.77F
MENOMINEE      CLOUDY    72  64  78 S9        29.76S
SAWYER-GWINN   LGT RAIN  55  54  94 N18       29.85S
$$
MIZ001>003-009>011-084-070000-
WESTERN UPPER MICHIGAN

CITY           SKY/WX    TMP DP  RH WIND       PRES   REMARKS
IRON MOUNTAIN  RAIN      60  58  92 N22G35    29.80R FOG
HOUGHTON       LGT RAIN  58  55  90 NW7       29.87S VSB 1
COPPER HARBOR    N/A     51  50  96 N12       29.85S
IRONWOOD       CLOUDY    57  55  94 N7        29.90R
$$

ABBREVIATIONS USED IN REMARKS
   TC - TEMPERATURE IN CELSIUS
  WCI - WIND CHILL INDEX
   HX - HEAT INDEX
  VSB - VISIBILITY




USA.gov is the U.S. government's official web portal to all federal, state and local government web resources and services.